Theta_e
283 283 284 284 285 284 283 283 281 281 280 283 284 285 286 288 289 289 290 290 290 290 289 288 288 287 286 286 285 285 285 284 284 283 284 284 283 283 282 282 282 281 281 281
278 283 283 281 284 286 287 286 283 280 280 284 284 285 286 289 289 290 291 291 291 291 290 290 289 289 288 286 286 285 284 284 283 283 283 282 282 282 282 281 281 280 280 280
272 279 282 276 281 283 284 285 285 281 286 287 286 287 287 288 288 289 291 292 292 292 292 291 290 290 289 288 285 285 284 283 283 283 282 282 282 281 281 280 280 279 279 279
273 276 272 280 282 285 285 286 288 287 286 289 291 290 289 288 289 289 290 292 292 292 291 291 290 289 289 287 285 284 283 283 283 282 282 281 281 281 280 280 279 278 278 279
277 272 278 281 282 283 282 283 288 287 289 289 288 287 287 291 291 291 292 293 294 294 293 292 289 289 287 285 284 284 283 284 283 283 282 281 280 280 279 279 279 279 279 278
274 272 269 279 283 286 286 279 286 289 289 289 287 285 289 292 291 291 292 292 292 291 290 290 288 287 286 285 284 285 285 284 283 283 282 281 281 279 278 278 280 279 279 278
279 274 276 283 283 285 277 281 282 283 287 288 287 290 290 290 288 289 289 290 289 286 288 288 287 286 286 284 285 284 282 282 282 281 282 282 280 278 278 279 278 277 277 276
278 275 274 283 284 282 285 284 282 282 284 286 286 286 286 287 286 287 288 287 286 287 283 279 283 286 284 284 281 281 281 281 281 281 282 280 280 278 276 277 277 276 274 273
282 280 284 285 284 286 285 282 282 282 285 287 286 285 285 285 284 284 284 283 280 283 280 278 278 280 282 279 279 278 279 280 279 277 279 279 279 276 275 275 277 277 275 275
284 284 285 286 285 284 284 284 284 283 286 284 285 283 283 282 282 282 278 277 276 281 280 277 275 277 276 276 275 277 278 276 274 275 274 273 277 278 277 276 276 275 273 274
281 282 284 286 286 286 287 285 283 283 283 284 283 282 281 281 280 278 276 274 275 279 277 272 271 273 271 272 273 274 272 271 271 271 271 271 273 274 277 274 278 275 277 275
282 286 286 287 287 286 287 287 283 281 282 279 280 282 279 277 275 275 276 273 276 275 275 270 271 271 270 268 270 271 271 270 270 270 268 269 269 270 279 281 282 284 283 277
285 285 284 281 282 282 284 284 280 279 279 279 276 277 276 275 271 271 271 271 271 270 268 267 269 271 267 267 266 267 269 268 268 269 267 266 265 267 272 272 283 284 284 285
282 283 283 281 286 278 278 279 275 272 272 274 273 270 271 272 268 269 269 266 264 265 266 265 266 266 262 261 262 262 262 265 264 266 265 264 264 265 264 266 267 267 277 284
283 285 285 281 276 275 273 273 274 272 273 271 267 270 271 272 269 265 261 260 261 263 263 263 265 263 259 258 261 260 263 263 262 261 261 263 262 262 263 263 265 263 263 273
278 279 275 277 278 273 274 270 274 275 272 271 268 269 269 270 265 260 259 262 268 267 262 261 264 260 258 258 258 259 259 263 261 259 260 260 261 262 262 261 261 264 266 270
276 274 271 274 278 276 276 272 273 274 272 271 272 269 268 268 264 263 262 259 259 261 260 258 259 259 257 256 256 258 257 258 261 258 258 258 259 260 261 260 263 269 270 273
285 280 284 282 281 276 272 271 274 274 272 270 268 269 270 272 269 262 258 262 265 264 259 255 255 256 257 256 257 257 256 256 256 257 257 258 259 260 262 267 266 269 274 275
268 272 271 275 278 278 276 275 275 271 268 268 266 269 269 265 260 259 260 264 263 262 261 257 266 258 259 260 259 256 256 257 256 256 256 258 260 270 271 272 274 274 273 271
263 264 268 267 271 272 271 272 270 269 266 267 267 267 267 265 260 261 260 261 257 257 253 253 255 256 256 255 258 254 255 255 256 256 263 258 258 259 261 264 266 266 266 265
265 264 266 267 265 265 267 269 269 267 264 264 266 265 265 261 259 258 262 262 257 253 253 255 253 254 253 254 254 253 253 254 255 256 256 257 257 258 259 259 261 262 264 262
261 263 263 263 263 261 263 265 265 264 263 262 261 260 261 258 257 255 252 257 255 255 254 252 252 255 255 258 253 253 252 253 253 254 254 255 255 257 258 259 260 261 262 263
267 266 267 266 264 261 262 262 263 263 261 259 259 257 255 255 254 258 258 254 251 252 252 252 255 261 262 254 252 251 252 253 253 254 254 254 256 257 259 260 261 261 261 262
266 265 261 260 261 262 262 258 258 256 257 255 252 249 253 256 254 250 250 252 254 255 253 253 258 263 256 251 251 251 251 251 252 252 253 256 254 255 255 258 260 260 260 261
264 262 262 263 263 259 259 256 256 252 252 254 253 251 250 250 254 253 250 251 256 253 253 256 260 259 250 249 250 250 250 250 250 250 252 252 254 256 257 257 258 260 261 261
257 260 259 258 258 256 254 252 255 250 252 252 251 250 250 249 250 251 251 253 252 254 252 252 252 251 251 251 251 251 253 253 253 253 253 252 253 254 256 257 258 259 259 261
253 253 254 255 252 250 251 252 254 252 249 250 253 250 250 250 251 253 254 253 253 253 252 251 252 253 252 252 253 253 253 253 255 254 252 252 253 254 255 256 257 259 260 261
Wind_Speed
4 3 2 6 11 8 13 8 11 4 10 8 6 6 4 6 5 6 8 8 8 8 7 7 7 7 7 6 7 7 7 7 7 6 6 6 6 6 6 6 6 6 6 5
3 3 3 4 10 18 22 17 12 1 6 5 3 2 4 8 8 8 8 8 8 8 8 9 10 9 7 7 8 7 7 7 6 7 7 7 6 7 6 5 5 6 6 6
4 2 3 7 13 13 8 7 9 16 13 3 5 8 10 10 8 9 10 9 10 11 10 9 11 10 11 11 8 9 8 7 8 7 7 7 7 7 7 7 6 6 6 5
2 1 4 4 1 6 18 13 19 10 5 12 17 10 7 5 7 9 8 8 9 7 8 10 8 10 7 7 7 8 7 7 7 7 7 6 7 7 6 5 7 6 6 7
4 3 7 7 3 6 9 11 16 13 15 11 5 4 7 8 11 11 9 10 11 9 8 7 9 8 9 8 8 8 9 11 9 9 9 8 8 8 6 5 5 6 5 8
3 5 8 6 3 3 4 7 3 12 16 15 7 11 13 8 7 12 11 7 9 8 6 7 7 9 8 8 7 11 10 8 7 8 7 9 9 8 5 5 9 7 8 7
4 3 8 6 2 2 7 5 2 0 5 5 8 8 2 2 2 1 3 7 6 5 5 4 8 9 9 8 12 5 7 8 8 7 9 10 8 5 6 7 5 6 7 5
2 2 7 3 3 3 2 6 5 4 4 5 6 3 2 5 5 5 6 4 2 6 5 1 5 8 7 9 5 6 7 7 8 8 8 6 8 6 5 6 7 7 6 5
5 4 3 2 4 6 3 3 6 5 5 7 5 3 4 4 4 3 4 4 1 7 7 6 5 4 5 2 5 5 5 5 5 5 6 6 8 6 4 6 8 7 6 7
3 4 6 5 4 3 3 4 6 4 5 3 4 4 5 5 3 4 4 3 1 7 8 7 5 7 5 4 3 4 3 3 2 4 3 2 3 4 6 7 7 4 4 6
5 6 3 4 5 4 6 5 5 5 3 3 2 1 3 5 6 5 3 3 4 6 7 6 4 5 3 5 6 4 2 1 2 2 3 3 2 4 5 3 7 6 8 5
6 7 5 4 5 9 6 3 2 2 3 2 1 4 2 3 2 3 5 1 6 6 7 5 5 7 7 5 4 3 2 1 1 0 0 1 1 3 8 10 11 14 11 8
5 4 5 2 3 2 3 5 4 4 3 4 1 3 3 4 2 2 5 6 6 6 6 3 6 7 4 5 4 4 1 1 1 1 2 1 1 2 4 3 11 13 14 15
3 5 2 3 5 3 2 4 3 4 3 4 4 2 4 5 2 3 4 1 1 3 5 6 6 6 3 4 4 4 2 1 2 2 2 2 2 3 2 3 3 4 7 13
9 9 5 4 3 3 2 1 2 2 4 5 4 3 3 5 5 3 3 3 1 4 4 4 5 4 4 3 4 3 1 2 1 2 2 2 1 2 2 2 3 3 3 5
3 4 4 5 4 4 5 2 4 3 2 5 5 4 3 5 6 3 1 1 4 3 4 5 5 3 3 4 3 2 1 2 0 1 1 1 1 2 2 3 3 3 3 4
6 4 2 5 9 6 6 4 4 4 2 5 5 5 4 5 4 4 4 3 3 4 4 2 2 4 4 4 3 1 1 1 2 2 1 1 2 3 4 2 2 3 3 4
13 5 12 7 10 9 5 5 5 5 3 6 6 5 5 3 3 3 2 3 5 7 5 4 3 3 4 3 2 2 2 2 2 2 2 2 3 3 3 2 3 4 4 3
4 6 4 5 7 9 8 8 9 6 6 6 5 4 4 5 3 2 2 4 5 5 5 5 7 5 5 6 4 2 2 3 4 2 1 3 2 2 1 2 3 2 2 3
4 5 7 6 7 6 8 5 8 8 5 5 5 4 5 4 2 2 2 4 3 2 3 4 4 4 4 4 5 2 3 2 2 3 1 2 2 3 2 3 4 4 4 4
8 6 8 10 8 8 7 6 7 7 6 5 4 4 5 3 2 1 3 3 3 2 3 4 2 3 3 3 2 2 2 1 1 2 2 3 3 3 3 3 4 4 4 4
4 7 8 8 8 8 5 5 6 6 5 5 4 4 4 3 3 2 1 2 2 5 2 2 2 4 3 4 3 2 1 1 2 2 2 2 2 2 3 3 4 4 4 5
7 6 9 8 7 8 6 5 5 4 5 4 4 4 3 2 2 4 2 2 3 3 2 3 5 5 8 4 2 2 3 2 2 2 2 2 2 2 3 4 3 4 4 5
7 6 6 6 7 7 7 3 5 5 5 4 4 2 3 3 2 0 2 4 5 4 2 3 4 6 3 1 3 3 2 2 2 2 3 3 2 3 3 4 4 4 4 5
6 5 5 6 6 4 7 4 5 4 3 5 6 4 2 0 3 1 1 2 3 1 2 4 4 4 2 3 3 2 2 2 2 2 2 2 3 4 4 4 5 5 5 5
3 4 4 4 3 4 4 2 4 2 4 3 2 2 3 3 1 1 0 1 2 2 2 2 2 2 2 2 2 2 2 3 3 3 3 3 3 4 4 5 5 5 5 5
5 4 4 4 4 3 3 3 4 2 2 2 2 2 1 1 2 3 3 2 1 1 1 2 2 3 2 2 3 3 3 2 3 3 2 3 3 3 4 5 5 5 6 6
Wind_Direction
53 30 81 164 171 178 216 208 196 195 216 252 257 250 247 218 187 193 207 201 198 198 198 196 184 189 188 185 179 174 169 179 186 167 154 151 154 155 158 165 168 167 150 170
43 357 216 213 211 198 211 224 242 114 264 255 260 144 212 226 201 212 218 215 205 205 197 196 195 193 185 186 189 167 180 187 156 162 168 169 167 165 172 167 169 163 180 182
252 340 131 295 216 204 206 202 199 233 233 220 254 222 221 229 211 210 220 209 209 209 204 198 195 184 189 194 168 182 180 164 173 174 174 177 173 167 176 184 175 187 199 184
206 16 251 261 354 217 206 214 217 235 191 212 232 247 259 188 195 228 229 216 223 204 200 201 186 189 166 161 166 169 181 174 182 178 182 177 176 183 184 177 190 189 196 195
157 206 290 307 198 155 173 254 223 230 243 229 232 315 263 214 211 211 213 216 217 207 207 173 177 166 163 172 171 174 188 192 186 180 184 184 186 193 185 181 194 199 192 197
134 162 213 240 302 182 133 302 264 213 230 226 153 240 255 228 195 219 224 206 205 190 171 169 168 151 162 179 177 205 197 194 168 175 181 189 194 187 175 178 204 194 209 201
170 214 285 259 253 187 85 250 331 253 242 203 201 228 282 345 90 196 213 199 146 146 162 171 156 156 179 162 203 169 148 161 171 176 187 197 190 174 176 198 199 208 217 203
115 120 265 354 29 158 309 309 313 330 299 273 253 220 67 42 57 74 106 88 107 126 113 89 161 147 154 190 156 154 160 167 181 191 196 181 176 186 176 181 203 214 205 224
210 225 197 273 203 237 216 273 337 332 318 298 218 201 145 127 101 62 91 99 56 127 104 51 41 77 142 160 141 147 150 181 181 173 179 178 184 181 173 186 206 215 212 227
114 235 226 239 242 265 291 263 287 294 309 325 291 175 123 118 108 74 32 33 31 113 98 87 56 71 75 96 103 115 163 198 177 185 199 206 191 177 189 194 203 201 191 223
265 280 295 179 242 155 304 303 323 314 338 356 107 65 114 118 107 93 54 42 38 90 91 78 46 73 95 124 126 126 112 164 204 183 180 196 208 190 213 220 192 193 215 206
222 214 155 218 237 162 191 276 220 292 324 22 19 178 104 91 84 115 109 94 102 82 86 64 66 62 34 15 50 90 105 39 286 285 204 189 187 275 251 236 225 231 226 200
231 206 170 237 288 295 191 175 218 197 175 168 22 131 131 136 79 57 94 87 65 82 94 82 70 66 34 18 54 97 85 356 340 245 229 212 221 210 263 306 253 242 240 243
180 117 322 210 241 140 310 344 288 132 116 125 140 114 123 119 92 98 96 73 11 77 82 76 62 56 344 45 65 55 18 305 239 246 216 212 197 229 209 216 254 286 267 249
203 211 205 128 119 142 139 88 315 276 148 107 49 134 102 133 125 91 353 339 27 124 84 77 72 37 337 32 57 42 25 297 323 293 265 245 219 239 230 231 249 262 320 303
176 200 146 193 181 172 150 197 173 227 248 116 113 117 119 106 112 119 79 330 146 68 20 36 53 314 336 44 57 49 46 335 250 256 314 322 263 245 251 241 243 242 244 241
128 260 144 224 197 188 195 154 189 153 157 123 127 130 145 130 116 88 39 15 55 74 53 73 339 337 14 40 65 53 60 2 14 37 16 266 229 230 236 206 231 246 241 237
207 200 198 194 182 160 157 147 122 149 130 114 122 148 155 168 127 128 10 360 103 86 44 1 319 1 18 22 60 51 49 29 38 12 336 289 254 240 238 210 238 250 253 243
161 176 164 154 155 153 146 144 126 114 113 123 133 145 120 110 128 155 207 112 90 83 2 352 1 12 11 352 41 55 56 37 23 327 272 291 316 258 247 248 263 276 300 289
106 96 107 104 79 112 123 104 112 118 111 117 116 136 137 124 116 102 45 85 122 155 316 328 349 3 340 330 6 22 49 44 277 278 327 320 293 289 297 293 285 279 275 267
120 105 111 106 93 70 80 109 125 129 130 119 153 154 124 106 102 135 91 96 324 350 349 337 343 309 306 323 338 33 37 292 333 324 301 285 306 298 288 278 272 266 270 267
94 108 103 102 106 98 74 91 96 114 117 113 104 111 128 99 92 61 301 112 332 356 310 346 331 299 298 1 17 8 313 354 334 319 304 301 287 287 278 278 278 277 275 270
95 105 108 112 112 111 98 84 86 102 111 122 124 128 101 119 146 104 55 304 291 309 351 8 305 336 28 16 346 357 4 349 314 298 285 285 282 279 270 272 273 276 278 280
113 99 94 100 115 113 114 95 101 85 94 91 69 74 91 103 2 54 330 328 339 350 345 300 353 23 10 346 21 12 344 317 296 290 295 294 292 291 294 288 291 281 275 283
85 91 98 115 107 96 105 115 96 71 103 77 43 7 291 332 104 296 351 335 316 21 24 352 6 7 15 23 15 347 307 308 309 322 313 308 307 310 301 297 292 297 295 288
62 79 78 59 88 105 104 108 96 55 70 78 354 349 2 6 18 110 242 345 8 13 17 340 344 3 11 353 345 342 347 341 340 323 314 301 293 293 293 297 295 290 286 287
72 79 91 72 43 64 82 100 111 127 128 141 119 295 261 32 47 53 43 33 10 3 359 344 5 360 337 355 5 351 331 320 324 319 310 301 301 293 296 293 290 293 298 299